Date,TemperatureHighF,TemperatureAvgF,TemperatureLowF,DewpointHighF,DewpointAvgF,DewpointLowF,HumidityHigh,HumidityAvg,HumidityLow,PressureMaxIn,PressureMinIn,WindSpeedMaxMPH,WindSpeedAvgMPH,GustSpeedMaxMPH,PrecipitationSumIn
2013-8-14,69,64,54,61,58,53,98,81,64,30.08,29.97,8,1,11,0.00
2013-8-15,73,63,52,65,58,52,99,86,70,30.11,30.01,16,1,18,0.00
2013-8-16,74,62,53,65,57,52,95,86,60,30.12,30.03,9,0,10,0.00
2013-8-17,70,62,53,64,58,52,95,87,68,30.15,30.07,8,0,10,0.00
2013-8-18,74,63,60,68,62,59,100,96,77,30.17,30.07,7,0,7,0.46
2013-8-19,75,66,61,71,65,61,100,96,79,30.14,30.02,5,0,5,0.26
2013-8-20,78,68,61,73,66,61,100,93,76,30.15,30.04,8,0,10,0.01
2013-8-21,77,69,64,72,67,63,99,93,77,30.19,30.08,6,0,8,0.00
2013-8-22,79,69,62,72,66,62,100,92,72,30.14,30.00,7,0,9,0.00
2013-8-23,74,66,62,70,66,62,100,98,85,30.08,29.98,6,0,6,0.42
2013-8-24,78,66,58,70,61,54,100,88,57,30.27,30.06,6,0,9,0.01
2013-8-25,76,63,55,64,56,51,92,79,51,30.38,30.24,6,0,6,0.00
2013-8-26,76,64,54,66,59,53,99,86,66,30.31,30.13,6,0,8,0.00
2013-8-27,76,67,62,70,65,60,99,91,75,30.13,30.00,5,0,7,0.00
2013-8-28,78,70,65,74,68,65,100,93,77,30.04,29.91,9,0,9,0.00
2013-8-29,82,72,66,74,69,66,99,91,69,29.97,29.88,9,0,9,0.04
2013-8-30,82,71,64,72,67,64,99,88,63,30.00,29.87,11,0,11,0.00
2013-8-31,80,70,66,76,68,66,100,96,79,29.93,29.82,12,0,15,0.08
2013-9-1,77,68,63,74,67,63,100,98,86,29.88,29.78,6,0,10,0.04
2013-9-2,76,70,64,72,68,64,100,93,81,29.90,29.80,9,0,11,0.00
2013-9-3,75,66,59,69,64,58,100,95,78,30.01,29.81,11,0,13,0.10
2013-9-4,78,63,54,69,60,54,100,89,59,30.13,29.99,9,0,12,0.01
2013-9-5,76,63,54,65,57,52,100,83,47,30.18,30.08,5,0,7,0.00
2013-9-6,78,64,54,66,59,53,100,86,59,30.19,30.05,6,0,7,0.00
2013-9-7,78,65,57,68,62,56,100,89,67,30.12,29.98,10,0,11,0.00
2013-9-8,78,68,62,69,64,61,99,89,60,29.99,29.91,7,0,10,0.00
2013-9-9,82,69,60,71,65,60,100,88,63,30.09,29.98,14,0,16,0.01
2013-9-10,82,71,63,72,65,61,93,82,60,30.21,30.08,9,0,9,0.00
2013-9-11,81,70,64,73,66,62,98,87,67,30.20,30.05,6,0,6,0.00
2013-9-12,76,67,62,71,66,61,100,96,80,30.05,29.86,10,0,14,0.50
2013-9-13,68,61,50,63,58,48,99,88,63,29.97,29.81,11,1,12,0.01
2013-9-14,69,54,44,58,50,43,99,87,63,30.13,29.96,9,0,11,0.00
2013-9-15,73,61,52,63,56,51,96,84,62,30.19,30.07,11,1,14,0.00
2013-9-16,73,62,56,65,59,55,98,90,70,30.16,30.09,8,0,11,0.00
2013-9-17,68,59,54,60,55,52,99,87,69,30.25,30.14,11,1,13,0.01
2013-9-18,67,58,53,60,55,49,98,88,72,30.25,30.12,11,0,11,0.04
2013-9-19,70,63,59,67,61,59,99,95,89,30.18,30.03,10,0,12,0.00
2013-9-20,77,68,63,70,65,63,100,90,73,30.09,29.84,4,0,6,0.00
2013-9-21,66,30,0,64,29,0,93,42,93,29.81,29.72,0,0,0,0.00
2013-9-22,65,37,0,58,34,0,98,55,71,29.92,29.77,6,0,6,0.00
2013-9-23,72,41,0,62,38,0,93,58,65,30.01,29.88,10,0,10,0.00
2013-9-24,74,42,0,65,39,0,98,54,66,30.06,29.82,7,0,7,0.00
2013-9-25,64,62,60,62,60,58,98,94,89,29.89,29.78,9,0,10,0.12
2013-9-26,70,61,52,62,58,52,100,92,72,30.05,29.84,6,0,7,0.01
2013-9-27,53,51,50,52,51,50,99,99,98,30.13,30.03,3,0,3,0.00
2013-9-28,66,60,55,58,55,53,93,84,75,30.13,30.12,0,0,0,0.00
2013-9-29,65,57,49,58,53,47,95,87,77,30.14,30.01,3,2,4,0.01
2013-9-30,69,61,55,60,57,54,97,87,70,30.08,29.97,5,0,6,0.01
2013-10-1,71,59,52,61,56,52,100,89,64,30.16,30.04,5,0,8,0.00
2013-10-2,75,60,52,63,57,52,100,89,62,30.19,30.06,7,0,9,0.00
2013-10-3,75,62,54,64,58,53,99,88,61,30.14,30.03,6,0,9,0.01
2013-10-4,77,64,58,67,60,57,100,89,63,30.17,30.05,6,0,6,0.00
2013-10-5,81,66,56,68,61,56,100,86,54,30.16,29.99,8,0,10,0.01
2013-10-6,76,68,62,64,60,58,90,78,65,29.99,29.79,18,1,18,0.00
2013-10-7,66,55,46,61,53,45,99,93,74,30.10,29.74,10,0,15,0.66
2013-10-8,68,51,40,55,46,39,99,85,52,30.23,30.08,11,0,12,0.01
2013-10-9,69,53,43,56,46,40,92,80,55,30.25,30.12,6,0,7,0.00
2013-10-10,62,52,43,53,47,41,95,83,55,30.18,30.03,9,0,10,0.01
2013-10-11,70,57,47,56,51,45,96,81,54,30.10,29.97,10,0,12,0.00
2013-10-12,66,59,54,59,55,49,99,87,75,30.09,29.96,6,0,8,0.06
2013-10-13,65,59,56,62,58,55,100,97,87,30.21,30.08,6,0,8,0.06
2013-10-14,70,58,52,64,57,52,100,95,75,30.24,30.09,3,0,4,0.01
2013-10-15,71,59,51,62,55,50,99,89,70,30.17,30.00,10,0,11,0.01
2013-10-16,65,58,50,58,54,49,97,87,73,30.04,29.93,6,0,9,0.00
2013-10-17,68,58,49,63,57,48,100,96,83,29.96,29.78,10,0,17,0.06
2013-10-18,61,51,46,51,46,44,98,86,64,30.07,29.94,7,0,10,0.00
2013-10-19,59,51,46,53,47,44,98,89,66,29.96,29.86,10,0,12,0.00
2013-10-20,59,47,35,44,39,34,96,76,41,30.10,29.96,9,0,11,0.00
2013-10-21,60,54,44,46,43,40,87,69,52,30.09,30.01,1,0,3,0.00
2013-10-22,62,55,49,49,47,44,90,74,57,29.99,29.80,10,1,13,0.00
2013-10-23,50,42,32,46,37,28,93,82,72,30.10,29.75,12,1,19,0.04
2013-10-24,44,37,30,34,30,26,87,78,66,30.24,30.09,11,1,12,0.00
2013-10-25,37,31,26,32,25,22,86,77,61,30.47,30.23,9,0,11,0.00
2013-10-26,45,28,24,30,23,21,92,83,50,30.43,30.29,9,0,14,0.00
2013-10-27,61,55,45,47,45,32,82,70,54,30.13,30.05,10,1,14,0.00
2013-10-28,60,54,50,53,49,47,98,84,70,30.26,30.09,5,0,12,0.04
2013-10-29,65,55,49,52,49,45,99,82,59,30.33,30.21,6,0,7,0.00
2013-10-30,70,59,52,56,52,48,96,78,58,30.26,30.12,14,1,14,0.02
2013-10-31,64,62,57,57,53,51,87,74,66,30.12,29.60,20,2,26,0.00
2013-11-1,68,60,49,58,51,43,93,72,48,29.76,29.60,21,3,27,0.30
2013-11-2,55,47,42,44,39,33,86,73,51,30.05,29.74,12,1,14,0.00
2013-11-3,48,40,36,35,33,29,89,76,55,30.38,30.04,7,0,9,0.00
2013-11-4,57,43,36,32,30,28,78,61,36,30.49,30.35,16,2,17,0.00
2013-11-5,62,47,36,47,28,9,82,52,13,30.54,30.32,13,1,16,0.00
2013-11-6,67,56,51,50,48,46,85,75,52,30.32,30.06,18,2,19,0.00
2013-11-7,55,45,31,52,42,28,98,90,77,30.26,29.97,10,1,12,0.45
2013-11-8,45,34,29,29,25,21,91,71,41,30.40,30.26,12,1,12,0.00
2013-11-9,57,43,31,30,24,21,76,51,25,30.37,30.24,12,1,12,0.00
2013-11-10,58,47,35,38,32,24,69,57,44,30.30,30.16,17,1,19,0.00
2013-11-11,64,43,28,29,23,13,75,48,18,30.36,30.12,11,1,11,0.00
2013-11-12,51,29,20,34,21,14,92,74,38,30.59,30.08,18,2,21,0.01
2013-11-13,33,22,16,20,16,12,83,75,52,30.69,30.52,9,1,9,0.03
2013-11-14,53,34,23,25,18,11,78,56,21,30.55,30.30,10,1,12,0.00
2013-11-15,56,42,32,46,32,18,98,70,52,30.36,30.15,11,0,11,0.00
2013-11-16,64,52,44,54,48,43,99,88,63,30.24,30.08,15,2,19,0.00
2013-11-17,63,57,53,54,52,49,94,84,70,30.09,29.84,18,3,19,0.02
2013-11-18,57,49,36,49,38,26,94,67,43,30.10,29.91,14,1,23,0.00
2013-11-19,44,36,29,28,25,22,79,66,46,30.28,30.08,9,1,10,0.00
2013-11-20,50,40,32,28,24,18,70,53,29,30.39,30.22,16,2,18,0.00
2013-11-21,59,44,38,49,37,28,87,75,61,30.42,30.30,19,3,21,0.00
2013-11-22,63,55,50,55,51,47,99,87,70,30.32,30.13,10,1,11,0.43
2013-11-23,44,36,26,40,32,17,98,85,67,30.35,30.17,9,1,11,0.23
2013-11-24,26,20,15,17,8,2,75,60,40,30.61,30.33,14,2,15,0.00
2013-11-25,37,29,16,28,11,5,82,49,27,30.56,30.24,10,1,15,0.01
2013-11-26,45,41,34,45,40,0,99,95,80,30.24,29.68,12,1,15,0.17
2013-11-27,37,24,17,36,21,13,97,90,81,30.33,29.70,15,2,17,0.03
2013-11-28,38,23,13,27,18,10,92,79,49,30.54,30.32,5,1,7,0.20
2013-11-29,45,32,22,29,23,19,87,70,47,30.65,30.52,14,1,14,0.01
2013-11-30,51,36,30,29,24,20,75,62,39,30.59,30.31,15,2,17,0.00
2013-12-1,50,37,29,34,28,22,85,71,47,30.32,30.00,11,1,13,0.00
2013-12-2,49,41,35,39,34,28,88,77,67,30.01,29.82,10,0,10,0.00
2013-12-3,58,50,41,45,44,36,92,78,59,29.91,29.81,13,2,14,0.01
2013-12-4,64,53,45,52,47,42,92,82,62,30.01,29.88,12,2,16,0.00
2013-12-5,70,60,51,59,54,47,98,82,59,30.05,29.87,14,1,17,0.13
2013-12-6,69,57,40,64,55,39,100,92,70,30.09,29.81,14,2,19,1.02
2013-12-7,40,35,32,39,34,31,99,97,94,30.43,30.07,13,1,15,0.02
2013-12-8,50,42,36,49,40,35,99,92,85,30.35,30.04,27,3,27,0.49
2013-12-9,51,42,0,49,41,0,99,97,92,30.14,29.95,12,1,23,0.13
2013-12-10,40,30,21,39,29,19,99,94,87,30.45,29.94,7,1,10,0.75
2013-12-11,46,30,19,30,22,17,100,73,36,30.52,30.35,11,1,14,0.02
2013-12-12,30,24,20,19,16,12,84,71,58,30.52,30.37,11,1,12,0.00
2013-12-13,44,33,20,26,19,11,74,59,37,30.47,30.14,9,1,16,0.00
2013-12-14,46,42,37,44,36,19,97,81,42,30.18,29.73,14,3,26,0.53
2013-12-15,40,29,25,39,27,22,96,92,87,30.21,29.77,12,1,13,0.06
2013-12-16,47,35,23,32,27,21,96,75,51,30.27,30.11,13,2,15,0.03
2013-12-17,49,39,29,35,29,18,84,67,52,30.19,29.94,21,2,21,0.00
2013-12-18,38,30,23,20,17,13,79,60,42,30.38,30.16,12,1,14,0.00
2013-12-19,60,42,29,33,26,14,75,53,30,30.37,30.12,6,0,6,0.00
2013-12-20,63,50,40,42,32,21,71,51,28,30.20,30.05,11,1,15,0.00
2013-12-21,66,59,52,58,52,42,90,77,68,30.06,29.78,16,2,20,0.00
2013-12-22,67,57,51,58,54,49,99,89,68,30.04,29.78,22,3,32,2.02
2013-12-23,51,41,28,51,40,25,99,96,89,30.31,29.96,11,1,14,0.65
2013-12-24,28,24,15,25,19,11,89,82,71,30.52,30.30,10,1,12,0.00
2013-12-25,41,26,15,24,15,6,92,65,30,30.52,30.33,12,1,13,0.00
2013-12-26,41,30,24,26,22,16,84,70,55,30.43,30.31,13,1,16,0.00
2013-12-27,46,33,24,26,20,9,83,62,23,30.51,30.38,9,1,11,0.00
2013-12-28,49,38,28,41,26,17,95,64,30,30.46,30.05,10,1,12,0.22
2013-12-29,47,41,37,43,39,34,98,93,85,30.05,29.75,22,3,25,0.20
2013-12-30,38,33,29,35,32,28,98,95,85,30.23,30.01,8,1,10,0.10
2013-12-31,32,28,24,28,24,20,95,85,69,30.45,30.21,13,1,14,0.00
2014-1-1,46,33,25,27,23,17,82,66,38,30.41,30.09,10,1,10,0.00
2014-1-2,43,30,12,42,26,8,97,84,65,30.10,29.67,16,2,17,0.21